Time,TemperatureF,DewpointF,PressureIn,WindDirection,WindDirectionDegrees,WindSpeedMPH,WindSpeedGustMPH,Humidity,HourlyPrecipIn,Conditions,Clouds,dailyrainin,SoftwareType,DateUTC
2013-03-09 00:00:00,28.8,26.2,30.45,NNW,329,0.0,2.0,90,0.00,,,0.00,Weather View 32 v70,2013-03-09 05:00:00,
2013-03-09 00:05:00,28.1,25.3,30.45,NNW,348,0.0,2.0,89,0.00,,,0.00,Weather View 32 v70,2013-03-09 05:05:00,
2013-03-09 00:10:00,27.5,24.7,30.45,South,186,0.0,2.0,89,0.00,,,0.00,Weather View 32 v70,2013-03-09 05:10:00,
2013-03-09 00:15:00,27.5,24.7,30.45,West,278,1.0,2.0,89,0.00,,,0.00,Weather View 32 v70,2013-03-09 05:15:00,
2013-03-09 00:20:00,29.3,25.9,30.45,WSW,254,1.0,3.0,87,0.00,,,0.00,Weather View 32 v70,2013-03-09 05:20:00,
2013-03-09 00:25:00,29.2,25.0,30.45,WNW,284,2.0,3.0,84,0.00,,,0.00,Weather View 32 v70,2013-03-09 05:25:00,
2013-03-09 00:30:00,31.3,25.8,30.45,North,352,3.0,3.0,80,0.00,,,0.00,Weather View 32 v70,2013-03-09 05:30:00,
2013-03-09 00:35:00,32.1,25.4,30.45,NW,320,3.0,3.0,76,0.00,,,0.00,Weather View 32 v70,2013-03-09 05:35:00,
2013-03-09 00:40:00,32.7,25.3,30.44,NW,319,3.0,4.0,74,0.00,,,0.00,Weather View 32 v70,2013-03-09 05:40:00,
2013-03-09 00:45:00,32.3,24.6,30.45,NW,310,3.0,4.0,73,0.00,,,0.00,Weather View 32 v70,2013-03-09 05:45:00,
2013-03-09 00:50:00,31.9,24.2,30.45,WNW,303,2.0,4.0,73,0.00,,,0.00,Weather View 32 v70,2013-03-09 05:50:00,
2013-03-09 00:55:00,32.3,24.6,30.45,WNW,282,1.0,4.0,73,0.00,,,0.00,Weather View 32 v70,2013-03-09 05:55:00,
2013-03-09 01:00:00,32.0,24.6,30.45,NNW,328,2.0,4.0,74,0.00,,,0.00,Weather View 32 v70,2013-03-09 06:00:00,
2013-03-09 01:05:00,31.7,24.4,30.45,West,275,1.0,4.0,74,0.00,,,0.00,Weather View 32 v70,2013-03-09 06:05:00,
2013-03-09 01:10:00,31.5,24.5,30.45,WNW,286,1.0,4.0,75,0.00,,,0.00,Weather View 32 v70,2013-03-09 06:10:00,
2013-03-09 01:15:00,31.5,24.5,30.45,NW,326,0.0,4.0,75,0.00,,,0.00,Weather View 32 v70,2013-03-09 06:15:00,
2013-03-09 01:20:00,31.0,24.0,30.45,West,274,3.0,4.0,75,0.00,,,0.00,Weather View 32 v70,2013-03-09 06:20:00,
2013-03-09 01:25:00,31.1,24.1,30.45,NNW,346,1.0,6.0,75,0.00,,,0.00,Weather View 32 v70,2013-03-09 06:25:00,
2013-03-09 01:30:00,31.1,24.1,30.45,NNW,338,2.0,6.0,75,0.00,,,0.00,Weather View 32 v70,2013-03-09 06:30:00,
2013-03-09 01:35:00,31.1,23.8,30.45,West,261,1.0,6.0,74,0.00,,,0.00,Weather View 32 v70,2013-03-09 06:35:00,
2013-03-09 01:40:00,31.0,24.0,30.45,NNW,333,3.0,6.0,75,0.00,,,0.00,Weather View 32 v70,2013-03-09 06:40:00,
2013-03-09 01:45:00,31.3,24.0,30.45,NE,53,2.0,6.0,74,0.00,,,0.00,Weather View 32 v70,2013-03-09 06:45:00,
2013-03-09 01:50:00,30.2,23.2,30.44,WNW,288,2.0,6.0,75,0.00,,,0.00,Weather View 32 v70,2013-03-09 06:50:00,
2013-03-09 01:56:00,30.4,23.4,30.45,WNW,294,1.0,6.0,75,0.00,,,0.00,Weather View 32 v70,2013-03-09 06:56:00,
2013-03-09 02:01:00,29.5,22.6,30.45,NW,322,0.0,6.0,75,0.00,,,0.00,Weather View 32 v70,2013-03-09 07:01:00,
2013-03-09 02:06:00,29.2,22.9,30.45,NW,324,2.0,6.0,77,0.00,,,0.00,Weather View 32 v70,2013-03-09 07:06:00,
2013-03-09 02:11:00,29.2,23.2,30.45,NW,319,1.0,6.0,78,0.00,,,0.00,Weather View 32 v70,2013-03-09 07:11:00,
2013-03-09 02:16:00,28.4,22.4,30.45,WNW,286,1.0,6.0,78,0.00,,,0.00,Weather View 32 v70,2013-03-09 07:16:00,
2013-03-09 02:21:00,27.7,22.3,30.45,North,9,0.0,6.0,80,0.00,,,0.00,Weather View 32 v70,2013-03-09 07:21:00,
2013-03-09 02:26:00,27.4,23.8,30.44,East,86,1.0,4.0,86,0.00,,,0.00,Weather View 32 v70,2013-03-09 07:26:00,
2013-03-09 02:31:00,27.2,23.8,30.44,WNW,283,0.0,4.0,87,0.00,,,0.00,Weather View 32 v70,2013-03-09 07:31:00,
2013-03-09 02:36:00,26.6,23.5,30.44,SSW,196,0.0,4.0,88,0.00,,,0.00,Weather View 32 v70,2013-03-09 07:36:00,
2013-03-09 02:41:00,26.1,23.0,30.44,North,349,1.0,4.0,88,0.00,,,0.00,Weather View 32 v70,2013-03-09 07:41:00,
2013-03-09 02:46:00,25.9,22.8,30.44,SSW,210,0.0,3.0,88,0.00,,,0.00,Weather View 32 v70,2013-03-09 07:46:00,
2013-03-09 02:51:00,25.6,23.1,30.43,WSW,237,0.0,3.0,90,0.00,,,0.00,Weather View 32 v70,2013-03-09 07:51:00,
2013-03-09 02:56:00,26.1,23.6,30.43,North,352,1.0,3.0,90,0.00,,,0.00,Weather View 32 v70,2013-03-09 07:56:00,
2013-03-09 03:01:00,25.7,23.2,30.43,NNW,331,0.0,3.0,90,0.00,,,0.00,Weather View 32 v70,2013-03-09 08:01:00,
2013-03-09 03:06:00,25.6,23.1,30.44,NNE,13,0.0,3.0,90,0.00,,,0.00,Weather View 32 v70,2013-03-09 08:06:00,
2013-03-09 03:11:00,25.7,23.7,30.44,ENE,68,0.0,2.0,92,0.00,,,0.00,Weather View 32 v70,2013-03-09 08:11:00,
2013-03-09 03:16:00,25.6,23.6,30.45,NNE,25,1.0,2.0,92,0.00,,,0.00,Weather View 32 v70,2013-03-09 08:16:00,
2013-03-09 03:21:00,25.2,23.5,30.44,NNW,338,1.0,4.0,93,0.00,,,0.00,Weather View 32 v70,2013-03-09 08:21:00,
2013-03-09 03:26:00,25.7,24.0,30.45,North,6,2.0,4.0,93,0.00,,,0.00,Weather View 32 v70,2013-03-09 08:26:00,
2013-03-09 03:31:00,26.3,24.8,30.46,NW,316,2.0,4.0,94,0.00,,,0.00,Weather View 32 v70,2013-03-09 08:31:00,
2013-03-09 03:36:00,27.0,25.0,30.45,North,6,2.0,4.0,92,0.00,,,0.00,Weather View 32 v70,2013-03-09 08:36:00,
2013-03-09 03:41:00,27.7,23.2,30.45,NNW,348,3.0,4.0,83,0.00,,,0.00,Weather View 32 v70,2013-03-09 08:41:00,
2013-03-09 03:46:00,27.2,23.6,30.45,North,354,2.0,4.0,86,0.00,,,0.00,Weather View 32 v70,2013-03-09 08:46:00,
2013-03-09 03:51:00,27.4,23.5,30.45,NNE,22,2.0,4.0,85,0.00,,,0.00,Weather View 32 v70,2013-03-09 08:51:00,
2013-03-09 03:56:00,26.8,23.2,30.46,West,264,1.0,4.0,86,0.00,,,0.00,Weather View 32 v70,2013-03-09 08:56:00,
2013-03-09 04:01:00,26.5,22.9,30.45,NNW,330,0.0,4.0,86,0.00,,,0.00,Weather View 32 v70,2013-03-09 09:01:00,
2013-03-09 04:06:00,26.8,23.2,30.46,West,259,0.0,4.0,86,0.00,,,0.00,Weather View 32 v70,2013-03-09 09:06:00,
2013-03-09 04:11:00,26.8,23.2,30.47,NNE,17,0.0,4.0,86,0.00,,,0.00,Weather View 32 v70,2013-03-09 09:11:00,
2013-03-09 04:16:00,26.6,23.0,30.46,NW,309,1.0,4.0,86,0.00,,,0.00,Weather View 32 v70,2013-03-09 09:16:00,
2013-03-09 04:21:00,26.6,23.0,30.46,WNW,292,1.0,4.0,86,0.00,,,0.00,Weather View 32 v70,2013-03-09 09:21:00,
2013-03-09 04:26:00,26.6,23.0,30.46,ENE,68,1.0,4.0,86,0.00,,,0.00,Weather View 32 v70,2013-03-09 09:26:00,
2013-03-09 04:31:00,26.8,23.2,30.46,NNW,332,4.0,4.0,86,0.00,,,0.00,Weather View 32 v70,2013-03-09 09:31:00,
2013-03-09 04:36:00,27.2,23.6,30.46,NW,317,2.0,5.0,86,0.00,,,0.00,Weather View 32 v70,2013-03-09 09:36:00,
2013-03-09 04:41:00,28.6,22.9,30.46,NNW,329,3.0,5.0,79,0.00,,,0.00,Weather View 32 v70,2013-03-09 09:41:00,
2013-03-09 04:46:00,29.0,23.0,30.47,South,188,0.0,5.0,78,0.00,,,0.00,Weather View 32 v70,2013-03-09 09:46:00,
2013-03-09 04:51:00,29.3,23.3,30.47,North,358,1.0,5.0,78,0.00,,,0.00,Weather View 32 v70,2013-03-09 09:51:00,
2013-03-09 04:56:00,29.0,23.0,30.47,NW,320,2.0,5.0,78,0.00,,,0.00,Weather View 32 v70,2013-03-09 09:56:00,
2013-03-09 05:01:00,29.3,23.0,30.47,ENE,72,0.0,5.0,77,0.00,,,0.00,Weather View 32 v70,2013-03-09 10:01:00,
2013-03-09 05:06:00,28.1,21.8,30.47,SSW,201,1.0,5.0,77,0.00,,,0.00,Weather View 32 v70,2013-03-09 10:06:00,
2013-03-09 05:11:00,27.4,22.9,30.46,NW,304,1.0,5.0,83,0.00,,,0.00,Weather View 32 v70,2013-03-09 10:11:00,
2013-03-09 05:16:00,27.2,23.3,30.47,NW,318,2.0,5.0,85,0.00,,,0.00,Weather View 32 v70,2013-03-09 10:16:00,
2013-03-09 05:21:00,26.8,23.2,30.47,NNW,347,2.0,5.0,86,0.00,,,0.00,Weather View 32 v70,2013-03-09 10:21:00,
2013-03-09 05:26:00,26.8,23.2,30.47,NNE,16,2.0,5.0,86,0.00,,,0.00,Weather View 32 v70,2013-03-09 10:26:00,
2013-03-09 05:31:00,26.8,23.2,30.47,North,9,2.0,5.0,86,0.00,,,0.00,Weather View 32 v70,2013-03-09 10:31:00,
2013-03-09 05:36:00,27.0,23.4,30.48,NNW,347,1.0,5.0,86,0.00,,,0.00,Weather View 32 v70,2013-03-09 10:36:00,
2013-03-09 05:41:00,27.4,23.8,30.46,NE,42,2.0,5.0,86,0.00,,,0.00,Weather View 32 v70,2013-03-09 10:41:00,
2013-03-09 05:46:00,26.8,23.2,30.48,North,8,1.0,5.0,86,0.00,,,0.00,Weather View 32 v70,2013-03-09 10:46:00,
2013-03-09 05:51:00,26.6,23.0,30.48,West,276,2.0,5.0,86,0.00,,,0.00,Weather View 32 v70,2013-03-09 10:51:00,
2013-03-09 05:56:00,26.8,23.2,30.49,East,84,1.0,4.0,86,0.00,,,0.00,Weather View 32 v70,2013-03-09 10:56:00,
2013-03-09 06:01:00,26.3,22.7,30.49,NNE,28,1.0,4.0,86,0.00,,,0.00,Weather View 32 v70,2013-03-09 11:01:00,
2013-03-09 06:06:00,26.3,22.7,30.50,WNW,299,0.0,4.0,86,0.00,,,0.00,Weather View 32 v70,2013-03-09 11:06:00,
2013-03-09 06:11:00,25.9,22.3,30.50,North,351,0.0,4.0,86,0.00,,,0.00,Weather View 32 v70,2013-03-09 11:11:00,
2013-03-09 06:16:00,25.9,22.3,30.51,WSW,254,0.0,4.0,86,0.00,,,0.00,Weather View 32 v70,2013-03-09 11:16:00,
2013-03-09 06:21:00,25.6,22.3,30.50,NNE,15,1.0,4.0,87,0.00,,,0.00,Weather View 32 v70,2013-03-09 11:21:00,
2013-03-09 06:26:00,25.9,22.8,30.50,NW,321,1.0,3.0,88,0.00,,,0.00,Weather View 32 v70,2013-03-09 11:26:00,
2013-03-09 06:31:00,25.6,22.8,30.50,North,350,2.0,4.0,89,0.00,,,0.00,Weather View 32 v70,2013-03-09 11:31:00,
2013-03-09 06:36:00,25.9,22.8,30.51,NW,321,2.0,4.0,88,0.00,,,0.00,Weather View 32 v70,2013-03-09 11:36:00,
2013-03-09 06:41:00,25.9,22.8,30.51,NW,325,2.0,4.0,88,0.00,,,0.00,Weather View 32 v70,2013-03-09 11:41:00,
2013-03-09 06:46:00,25.9,22.3,30.51,NW,312,1.0,4.0,86,0.00,,,0.00,Weather View 32 v70,2013-03-09 11:46:00,
2013-03-09 06:51:00,26.3,22.7,30.52,North,351,2.0,4.0,86,0.00,,,0.00,Weather View 32 v70,2013-03-09 11:51:00,
2013-03-09 06:56:00,27.0,23.4,30.52,NNW,334,2.0,4.0,86,0.00,,,0.00,Weather View 32 v70,2013-03-09 11:56:00,
2013-03-09 07:01:00,27.5,21.8,30.51,NNW,328,2.0,4.0,79,0.00,,,0.00,Weather View 32 v70,2013-03-09 12:01:00,
2013-03-09 07:06:00,29.2,22.6,30.51,West,259,1.0,4.0,76,0.00,,,0.00,Weather View 32 v70,2013-03-09 12:06:00,
2013-03-09 07:11:00,29.9,22.9,30.51,NNW,338,0.0,4.0,75,0.00,,,0.00,Weather View 32 v70,2013-03-09 12:11:00,
2013-03-09 07:16:00,31.1,23.5,30.51,NNW,348,2.0,4.0,73,0.00,,,0.00,Weather View 32 v70,2013-03-09 12:16:00,
2013-03-09 07:21:00,32.0,23.3,30.51,NW,304,2.0,4.0,70,0.00,,,0.00,Weather View 32 v70,2013-03-09 12:21:00,
2013-03-09 07:26:00,32.7,23.6,30.50,NW,310,1.0,5.0,69,0.00,,,0.00,Weather View 32 v70,2013-03-09 12:26:00,
2013-03-09 07:31:00,33.0,23.2,30.50,North,353,1.0,6.0,67,0.00,,,0.00,Weather View 32 v70,2013-03-09 12:31:00,
2013-03-09 07:36:00,33.4,23.6,30.50,North,356,1.0,6.0,67,0.00,,,0.00,Weather View 32 v70,2013-03-09 12:36:00,
2013-03-09 07:41:00,34.3,24.5,30.50,NNW,333,4.0,6.0,67,0.00,,,0.00,Weather View 32 v70,2013-03-09 12:41:00,
2013-03-09 07:46:00,34.3,24.5,30.49,NW,323,3.0,6.0,67,0.00,,,0.00,Weather View 32 v70,2013-03-09 12:46:00,
2013-03-09 07:51:00,34.7,24.9,30.48,NW,319,3.0,6.0,67,0.00,,,0.00,Weather View 32 v70,2013-03-09 12:51:00,
2013-03-09 07:56:00,35.4,25.5,30.48,NNW,337,6.0,6.0,67,0.00,,,0.00,Weather View 32 v70,2013-03-09 12:56:00,
2013-03-09 08:01:00,36.1,26.2,30.48,North,10,4.0,7.0,67,0.00,,,0.00,Weather View 32 v70,2013-03-09 13:01:00,
2013-03-09 08:06:00,36.6,27.4,30.47,North,350,6.0,8.0,69,0.00,,,0.00,Weather View 32 v70,2013-03-09 13:06:00,
2013-03-09 08:11:00,36.6,27.4,30.47,NW,320,5.0,8.0,69,0.00,,,0.00,Weather View 32 v70,2013-03-09 13:11:00,
2013-03-09 08:16:00,36.8,27.6,30.47,NW,320,6.0,8.0,69,0.00,,,0.00,Weather View 32 v70,2013-03-09 13:16:00,
2013-03-09 08:21:00,36.8,27.2,30.47,NNW,348,4.0,10.0,68,0.00,,,0.00,Weather View 32 v70,2013-03-09 13:21:00,
2013-03-09 08:26:00,37.0,27.8,30.47,NNW,341,4.0,10.0,69,0.00,,,0.00,Weather View 32 v70,2013-03-09 13:26:00,
2013-03-09 08:31:00,37.0,27.8,30.47,NE,35,5.0,10.0,69,0.00,,,0.00,Weather View 32 v70,2013-03-09 13:31:00,
2013-03-09 08:36:00,37.4,28.2,30.47,NNW,340,9.0,10.0,69,0.00,,,0.00,Weather View 32 v70,2013-03-09 13:36:00,
2013-03-09 08:41:00,37.4,27.8,30.47,WNW,301,3.0,10.0,68,0.00,,,0.00,Weather View 32 v70,2013-03-09 13:41:00,
2013-03-09 08:46:00,37.7,28.1,30.47,North,4,5.0,10.0,68,0.00,,,0.00,Weather View 32 v70,2013-03-09 13:46:00,
2013-03-09 08:51:00,37.9,28.6,30.47,NNW,339,3.0,10.0,69,0.00,,,0.00,Weather View 32 v70,2013-03-09 13:51:00,
2013-03-09 08:56:00,39.0,29.7,30.46,NNW,331,3.0,10.0,69,0.00,,,0.00,Weather View 32 v70,2013-03-09 13:56:00,
2013-03-09 09:01:00,39.3,30.0,30.46,NW,323,4.0,10.0,69,0.00,,,0.00,Weather View 32 v70,2013-03-09 14:01:00,
2013-03-09 09:06:00,39.3,29.6,30.46,NNW,331,4.0,10.0,68,0.00,,,0.00,Weather View 32 v70,2013-03-09 14:06:00,
2013-03-09 09:11:00,40.1,30.4,30.46,NNW,346,5.0,10.0,68,0.00,,,0.00,Weather View 32 v70,2013-03-09 14:11:00,
2013-03-09 09:16:00,39.7,30.0,30.45,NNW,335,6.0,10.0,68,0.00,,,0.00,Weather View 32 v70,2013-03-09 14:16:00,
2013-03-09 09:21:00,39.5,29.8,30.45,North,360,5.0,10.0,68,0.00,,,0.00,Weather View 32 v70,2013-03-09 14:21:00,
2013-03-09 09:26:00,40.4,30.7,30.45,NNW,340,5.0,10.0,68,0.00,,,0.00,Weather View 32 v70,2013-03-09 14:26:00,
2013-03-09 09:31:00,40.6,30.9,30.45,NW,310,3.0,10.0,68,0.00,,,0.00,Weather View 32 v70,2013-03-09 14:31:00,
2013-03-09 09:36:00,41.9,32.1,30.45,NNW,333,3.0,10.0,68,0.00,,,0.00,Weather View 32 v70,2013-03-09 14:36:00,
2013-03-09 09:41:00,42.2,32.4,30.45,NNW,327,4.0,10.0,68,0.00,,,0.00,Weather View 32 v70,2013-03-09 14:41:00,
2013-03-09 09:46:00,41.9,32.5,30.45,WNW,295,4.0,10.0,69,0.00,,,0.00,Weather View 32 v70,2013-03-09 14:46:00,
2013-03-09 09:51:00,41.7,32.3,30.45,North,357,4.0,10.0,69,0.00,,,0.00,Weather View 32 v70,2013-03-09 14:51:00,
2013-03-09 09:56:00,42.0,32.6,30.45,NW,310,3.0,11.0,69,0.00,,,0.00,Weather View 32 v70,2013-03-09 14:56:00,
2013-03-09 10:01:00,42.0,32.6,30.45,NNW,340,4.0,11.0,69,0.00,,,0.00,Weather View 32 v70,2013-03-09 15:01:00,
2013-03-09 10:06:00,41.9,32.5,30.45,WNW,291,3.0,11.0,69,0.00,,,0.00,Weather View 32 v70,2013-03-09 15:06:00,
2013-03-09 10:11:00,42.0,32.6,30.45,North,349,4.0,11.0,69,0.00,,,0.00,Weather View 32 v70,2013-03-09 15:11:00,
2013-03-09 10:16:00,42.2,32.7,30.45,NE,41,5.0,11.0,69,0.00,,,0.00,Weather View 32 v70,2013-03-09 15:16:00,
2013-03-09 10:21:00,43.1,33.6,30.45,NW,315,6.0,11.0,69,0.00,,,0.00,Weather View 32 v70,2013-03-09 15:21:00,
2013-03-09 10:26:00,42.8,33.3,30.44,North,358,3.0,11.0,69,0.00,,,0.00,Weather View 32 v70,2013-03-09 15:26:00,
2013-03-09 10:31:00,43.1,33.6,30.44,NNW,332,3.0,11.0,69,0.00,,,0.00,Weather View 32 v70,2013-03-09 15:31:00,
2013-03-09 10:36:00,43.3,33.8,30.44,NNE,26,3.0,11.0,69,0.00,,,0.00,Weather View 32 v70,2013-03-09 15:36:00,
2013-03-09 10:41:00,43.5,34.0,30.44,NNE,31,11.0,11.0,69,0.00,,,0.00,Weather View 32 v70,2013-03-09 15:41:00,
2013-03-09 10:46:00,43.1,33.6,30.43,NW,319,5.0,12.0,69,0.00,,,0.00,Weather View 32 v70,2013-03-09 15:46:00,
2013-03-09 10:51:00,43.8,34.3,30.43,NE,56,3.0,12.0,69,0.00,,,0.00,Weather View 32 v70,2013-03-09 15:51:00,
2013-03-09 10:56:00,44.6,35.0,30.42,NW,324,2.0,12.0,69,0.00,,,0.00,Weather View 32 v70,2013-03-09 15:56:00,
2013-03-09 11:01:00,45.1,35.5,30.42,NNW,328,5.0,12.0,69,0.00,,,0.00,Weather View 32 v70,2013-03-09 16:01:00,
2013-03-09 11:06:00,44.9,35.3,30.42,NW,315,6.0,12.0,69,0.00,,,0.00,Weather View 32 v70,2013-03-09 16:06:00,
2013-03-09 11:11:00,45.1,35.5,30.42,NW,313,6.0,12.0,69,0.00,,,0.00,Weather View 32 v70,2013-03-09 16:11:00,
2013-03-09 11:16:00,45.6,36.4,30.42,North,356,4.0,12.0,70,0.00,,,0.00,Weather View 32 v70,2013-03-09 16:16:00,
2013-03-09 11:21:00,46.2,36.9,30.41,NW,318,5.0,12.0,70,0.00,,,0.00,Weather View 32 v70,2013-03-09 16:21:00,
2013-03-09 11:26:00,46.5,36.9,30.41,NNE,24,3.0,12.0,69,0.00,,,0.00,Weather View 32 v70,2013-03-09 16:26:00,
2013-03-09 11:31:00,46.7,37.4,30.41,ENE,69,3.0,12.0,70,0.00,,,0.00,Weather View 32 v70,2013-03-09 16:31:00,
2013-03-09 11:36:00,47.8,38.5,30.41,North,2,4.0,12.0,70,0.00,,,0.00,Weather View 32 v70,2013-03-09 16:36:00,
2013-03-09 11:41:00,47.6,37.9,30.40,NNW,330,7.0,12.0,69,0.00,,,0.00,Weather View 32 v70,2013-03-09 16:41:00,
2013-03-09 11:46:00,47.4,37.7,30.40,ENE,63,3.0,9.0,69,0.00,,,0.00,Weather View 32 v70,2013-03-09 16:46:00,
2013-03-09 11:51:00,47.4,37.7,30.40,NW,308,4.0,9.0,69,0.00,,,0.00,Weather View 32 v70,2013-03-09 16:51:00,
2013-03-09 11:56:00,47.6,37.9,30.40,North,354,3.0,9.0,69,0.00,,,0.00,Weather View 32 v70,2013-03-09 16:56:00,
2013-03-09 12:01:00,48.3,38.6,30.40,NE,36,2.0,9.0,69,0.00,,,0.00,Weather View 32 v70,2013-03-09 17:01:00,
2013-03-09 12:06:00,48.3,38.6,30.39,ENE,59,4.0,9.0,69,0.00,,,0.00,Weather View 32 v70,2013-03-09 17:06:00,
2013-03-09 12:11:00,47.4,37.7,30.39,NE,39,5.0,9.0,69,0.00,,,0.00,Weather View 32 v70,2013-03-09 17:11:00,
2013-03-09 12:16:00,48.5,38.8,30.39,NNW,337,5.0,9.0,69,0.00,,,0.00,Weather View 32 v70,2013-03-09 17:16:00,
2013-03-09 12:21:00,48.3,38.2,30.38,East,80,6.0,9.0,68,0.00,,,0.00,Weather View 32 v70,2013-03-09 17:21:00,
2013-03-09 12:26:00,49.4,39.3,30.38,WNW,294,3.0,9.0,68,0.00,,,0.00,Weather View 32 v70,2013-03-09 17:26:00,
2013-03-09 12:31:00,49.2,39.4,30.37,NNW,332,5.0,11.0,69,0.00,,,0.00,Weather View 32 v70,2013-03-09 17:31:00,
2013-03-09 12:36:00,49.1,39.4,30.37,NNE,25,5.0,11.0,69,0.00,,,0.00,Weather View 32 v70,2013-03-09 17:36:00,
2013-03-09 12:41:00,50.0,39.8,30.37,NNW,333,3.0,11.0,68,0.00,,,0.00,Weather View 32 v70,2013-03-09 17:41:00,
2013-03-09 12:46:00,50.7,40.5,30.37,West,269,3.0,11.0,68,0.00,,,0.00,Weather View 32 v70,2013-03-09 17:46:00,
2013-03-09 12:51:00,50.7,40.5,30.36,NW,325,4.0,11.0,68,0.00,,,0.00,Weather View 32 v70,2013-03-09 17:51:00,
2013-03-09 12:56:00,50.1,39.9,30.35,NW,317,4.0,11.0,68,0.00,,,0.00,Weather View 32 v70,2013-03-09 17:56:00,
2013-03-09 13:01:00,50.1,39.9,30.35,NW,326,5.0,11.0,68,0.00,,,0.00,Weather View 32 v70,2013-03-09 18:01:00,
2013-03-09 13:06:00,49.8,39.6,30.34,NW,317,3.0,11.0,68,0.00,,,0.00,Weather View 32 v70,2013-03-09 18:06:00,
2013-03-09 13:11:00,50.1,39.9,30.34,NW,316,6.0,11.0,68,0.00,,,0.00,Weather View 32 v70,2013-03-09 18:11:00,
2013-03-09 13:16:00,50.3,40.1,30.34,ENE,78,3.0,11.0,68,0.00,,,0.00,Weather View 32 v70,2013-03-09 18:16:00,
2013-03-09 13:21:00,51.0,40.8,30.34,NNW,334,4.0,11.0,68,0.00,,,0.00,Weather View 32 v70,2013-03-09 18:21:00,
2013-03-09 13:26:00,50.5,40.3,30.34,WNW,292,4.0,11.0,68,0.00,,,0.00,Weather View 32 v70,2013-03-09 18:26:00,
2013-03-09 13:31:00,51.2,41.0,30.33,NNW,344,6.0,10.0,68,0.00,,,0.00,Weather View 32 v70,2013-03-09 18:31:00,
2013-03-09 13:36:00,50.7,40.5,30.33,NNW,343,6.0,10.0,68,0.00,,,0.00,Weather View 32 v70,2013-03-09 18:36:00,
2013-03-09 13:41:00,50.5,40.3,30.33,North,9,1.0,10.0,68,0.00,,,0.00,Weather View 32 v70,2013-03-09 18:41:00,
2013-03-09 13:46:00,51.2,41.0,30.33,ENE,64,4.0,10.0,68,0.00,,,0.00,Weather View 32 v70,2013-03-09 18:46:00,
2013-03-09 13:51:00,50.9,40.7,30.34,North,2,4.0,10.0,68,0.00,,,0.00,Weather View 32 v70,2013-03-09 18:51:00,
2013-03-09 13:56:00,50.7,40.5,30.33,NNW,336,3.0,10.0,68,0.00,,,0.00,Weather View 32 v70,2013-03-09 18:56:00,
2013-03-09 14:01:00,51.2,41.0,30.34,NW,324,6.0,10.0,68,0.00,,,0.00,Weather View 32 v70,2013-03-09 19:01:00,
2013-03-09 14:06:00,50.7,40.5,30.34,NE,44,5.0,9.0,68,0.00,,,0.00,Weather View 32 v70,2013-03-09 19:06:00,
2013-03-09 14:11:00,50.9,40.7,30.34,North,4,6.0,9.0,68,0.00,,,0.00,Weather View 32 v70,2013-03-09 19:11:00,
2013-03-09 14:16:00,51.2,41.0,30.34,NW,322,2.0,9.0,68,0.00,,,0.00,Weather View 32 v70,2013-03-09 19:16:00,
2013-03-09 14:22:00,51.2,41.0,30.34,NNE,29,3.0,9.0,68,0.00,,,0.00,Weather View 32 v70,2013-03-09 19:22:00,
2013-03-09 14:27:00,51.0,40.8,30.34,North,359,3.0,12.0,68,0.00,,,0.00,Weather View 32 v70,2013-03-09 19:27:00,
2013-03-09 14:32:00,51.8,41.6,30.34,West,272,2.0,12.0,68,0.00,,,0.00,Weather View 32 v70,2013-03-09 19:32:00,
2013-03-09 14:37:00,52.1,41.8,30.34,NNW,338,4.0,12.0,68,0.00,,,0.00,Weather View 32 v70,2013-03-09 19:37:00,
2013-03-09 14:42:00,51.6,41.7,30.34,North,3,5.0,12.0,69,0.00,,,0.00,Weather View 32 v70,2013-03-09 19:42:00,
2013-03-09 14:47:00,51.6,41.4,30.34,NNE,21,5.0,12.0,68,0.00,,,0.00,Weather View 32 v70,2013-03-09 19:47:00,
2013-03-09 14:52:00,51.4,41.2,30.34,WNW,300,5.0,12.0,68,0.00,,,0.00,Weather View 32 v70,2013-03-09 19:52:00,
2013-03-09 14:57:00,51.4,41.2,30.34,North,4,3.0,12.0,68,0.00,,,0.00,Weather View 32 v70,2013-03-09 19:57:00,
2013-03-09 15:02:00,51.6,41.4,30.34,North,356,5.0,12.0,68,0.00,,,0.00,Weather View 32 v70,2013-03-09 20:02:00,
2013-03-09 15:07:00,51.8,41.6,30.35,NNE,18,4.0,12.0,68,0.00,,,0.00,Weather View 32 v70,2013-03-09 20:07:00,
2013-03-09 15:12:00,52.1,41.8,30.35,North,1,6.0,12.0,68,0.00,,,0.00,Weather View 32 v70,2013-03-09 20:12:00,
2013-03-09 15:17:00,52.3,42.0,30.34,NW,310,3.0,12.0,68,0.00,,,0.00,Weather View 32 v70,2013-03-09 20:17:00,
2013-03-09 15:22:00,52.5,42.2,30.34,NNW,344,5.0,12.0,68,0.00,,,0.00,Weather View 32 v70,2013-03-09 20:22:00,
2013-03-09 15:27:00,52.5,42.2,30.34,North,353,5.0,9.0,68,0.00,,,0.00,Weather View 32 v70,2013-03-09 20:27:00,
2013-03-09 15:32:00,52.7,42.4,30.35,NNW,335,6.0,9.0,68,0.00,,,0.00,Weather View 32 v70,2013-03-09 20:32:00,
2013-03-09 15:37:00,53.2,42.9,30.34,NNW,348,3.0,9.0,68,0.00,,,0.00,Weather View 32 v70,2013-03-09 20:37:00,
2013-03-09 15:42:00,53.0,42.7,30.34,North,359,3.0,9.0,68,0.00,,,0.00,Weather View 32 v70,2013-03-09 20:42:00,
2013-03-09 15:47:00,53.0,42.7,30.34,NW,323,3.0,9.0,68,0.00,,,0.00,Weather View 32 v70,2013-03-09 20:47:00,
2013-03-09 15:52:00,53.2,42.9,30.34,NNE,13,3.0,9.0,68,0.00,,,0.00,Weather View 32 v70,2013-03-09 20:52:00,
2013-03-09 15:57:00,53.4,43.1,30.34,NE,52,2.0,8.0,68,0.00,,,0.00,Weather View 32 v70,2013-03-09 20:57:00,
2013-03-09 16:02:00,53.2,42.9,30.34,NW,319,2.0,8.0,68,0.00,,,0.00,Weather View 32 v70,2013-03-09 21:02:00,
2013-03-09 16:07:00,52.8,42.5,30.34,NE,35,3.0,8.0,68,0.00,,,0.00,Weather View 32 v70,2013-03-09 21:07:00,
2013-03-09 16:12:00,52.7,42.4,30.34,NW,320,2.0,8.0,68,0.00,,,0.00,Weather View 32 v70,2013-03-09 21:12:00,
2013-03-09 16:17:00,52.5,42.2,30.34,North,357,3.0,8.0,68,0.00,,,0.00,Weather View 32 v70,2013-03-09 21:17:00,
2013-03-09 16:22:00,52.5,42.2,30.35,North,7,2.0,8.0,68,0.00,,,0.00,Weather View 32 v70,2013-03-09 21:22:00,
2013-03-09 16:27:00,52.3,42.0,30.35,NNW,335,3.0,8.0,68,0.00,,,0.00,Weather View 32 v70,2013-03-09 21:27:00,
2013-03-09 16:32:00,51.9,41.7,30.35,North,8,2.0,8.0,68,0.00,,,0.00,Weather View 32 v70,2013-03-09 21:32:00,
2013-03-09 16:37:00,52.1,41.8,30.35,North,356,2.0,6.0,68,0.00,,,0.00,Weather View 32 v70,2013-03-09 21:37:00,
2013-03-09 16:42:00,51.8,41.6,30.35,NW,319,2.0,6.0,68,0.00,,,0.00,Weather View 32 v70,2013-03-09 21:42:00,
2013-03-09 16:47:00,51.8,41.6,30.35,NNW,330,1.0,5.0,68,0.00,,,0.00,Weather View 32 v70,2013-03-09 21:47:00,
2013-03-09 16:52:00,51.8,41.6,30.36,NNW,337,2.0,5.0,68,0.00,,,0.00,Weather View 32 v70,2013-03-09 21:52:00,
2013-03-09 16:57:00,51.4,41.2,30.36,NNW,343,3.0,6.0,68,0.00,,,0.00,Weather View 32 v70,2013-03-09 21:57:00,
2013-03-09 17:02:00,51.0,40.8,30.36,NNE,26,2.0,6.0,68,0.00,,,0.00,Weather View 32 v70,2013-03-09 22:02:00,
2013-03-09 17:07:00,50.9,40.7,30.37,WNW,299,2.0,6.0,68,0.00,,,0.00,Weather View 32 v70,2013-03-09 22:07:00,
2013-03-09 17:12:00,51.0,40.8,30.37,North,357,3.0,6.0,68,0.00,,,0.00,Weather View 32 v70,2013-03-09 22:12:00,
2013-03-09 17:17:00,50.5,40.3,30.37,North,354,4.0,6.0,68,0.00,,,0.00,Weather View 32 v70,2013-03-09 22:17:00,
2013-03-09 17:22:00,50.3,40.1,30.38,NW,307,3.0,6.0,68,0.00,,,0.00,Weather View 32 v70,2013-03-09 22:22:00,
2013-03-09 17:27:00,50.1,39.9,30.37,North,354,0.0,6.0,68,0.00,,,0.00,Weather View 32 v70,2013-03-09 22:27:00,
2013-03-09 17:32:00,49.1,39.0,30.37,North,3,2.0,6.0,68,0.00,,,0.00,Weather View 32 v70,2013-03-09 22:32:00,
2013-03-09 17:37:00,48.3,38.2,30.38,ENE,60,1.0,6.0,68,0.00,,,0.00,Weather View 32 v70,2013-03-09 22:37:00,
2013-03-09 17:42:00,47.3,37.3,30.39,WSW,238,1.0,6.0,68,0.00,,,0.00,Weather View 32 v70,2013-03-09 22:42:00,
2013-03-09 17:47:00,45.6,35.6,30.39,South,176,1.0,6.0,68,0.00,,,0.00,Weather View 32 v70,2013-03-09 22:47:00,
2013-03-09 17:52:00,44.2,33.9,30.40,SSE,158,0.0,6.0,67,0.00,,,0.00,Weather View 32 v70,2013-03-09 22:52:00,
2013-03-09 17:57:00,42.9,33.1,30.40,WSW,238,1.0,6.0,68,0.00,,,0.00,Weather View 32 v70,2013-03-09 22:57:00,
2013-03-09 18:02:00,42.4,33.3,30.41,WSW,248,1.0,6.0,70,0.00,,,0.00,Weather View 32 v70,2013-03-09 23:02:00,
2013-03-09 18:07:00,41.3,32.2,30.41,West,259,1.0,6.0,70,0.00,,,0.00,Weather View 32 v70,2013-03-09 23:07:00,
2013-03-09 18:12:00,39.3,30.0,30.41,NW,304,1.0,6.0,69,0.00,,,0.00,Weather View 32 v70,2013-03-09 23:12:00,
2013-03-09 18:17:00,38.4,29.1,30.42,NW,323,0.0,6.0,69,0.00,,,0.00,Weather View 32 v70,2013-03-09 23:17:00,
2013-03-09 18:22:00,37.5,28.2,30.42,SW,221,0.0,4.0,69,0.00,,,0.00,Weather View 32 v70,2013-03-09 23:22:00,
2013-03-09 18:27:00,37.0,27.8,30.43,WNW,298,0.0,3.0,69,0.00,,,0.00,Weather View 32 v70,2013-03-09 23:27:00,
2013-03-09 18:32:00,36.8,28.3,30.43,West,269,0.0,3.0,71,0.00,,,0.00,Weather View 32 v70,2013-03-09 23:32:00,
2013-03-09 18:37:00,36.6,28.8,30.43,WNW,283,0.0,2.0,73,0.00,,,0.00,Weather View 32 v70,2013-03-09 23:37:00,
2013-03-09 18:42:00,36.1,27.9,30.43,West,267,0.0,2.0,72,0.00,,,0.00,Weather View 32 v70,2013-03-09 23:42:00,
2013-03-09 18:47:00,35.2,27.7,30.43,North,356,0.0,2.0,74,0.00,,,0.00,Weather View 32 v70,2013-03-09 23:47:00,
2013-03-09 18:52:00,34.5,27.4,30.43,West,262,1.0,2.0,75,0.00,,,0.00,Weather View 32 v70,2013-03-09 23:52:00,
2013-03-09 18:57:00,34.1,27.3,30.44,West,262,0.0,2.0,76,0.00,,,0.00,Weather View 32 v70,2013-03-09 23:57:00,
2013-03-09 19:02:00,33.6,27.2,30.43,WNW,284,0.0,2.0,77,0.00,,,0.00,Weather View 32 v70,2013-03-10 00:02:00,
2013-03-09 19:07:00,33.6,27.8,30.44,NW,308,0.0,2.0,79,0.00,,,0.00,Weather View 32 v70,2013-03-10 00:07:00,
2013-03-09 19:12:00,33.2,27.4,30.43,WSW,239,0.0,2.0,79,0.00,,,0.00,Weather View 32 v70,2013-03-10 00:12:00,
2013-03-09 19:17:00,33.2,27.7,30.44,WNW,294,0.0,2.0,80,0.00,,,0.00,Weather View 32 v70,2013-03-10 00:17:00,
2013-03-09 19:22:00,32.9,27.4,30.44,WNW,284,0.0,2.0,80,0.00,,,0.00,Weather View 32 v70,2013-03-10 00:22:00,
2013-03-09 19:27:00,32.5,27.3,30.44,WNW,282,0.0,2.0,81,0.00,,,0.00,Weather View 32 v70,2013-03-10 00:27:00,
2013-03-09 19:32:00,32.1,26.9,30.45,West,264,0.0,2.0,81,0.00,,,0.00,Weather View 32 v70,2013-03-10 00:32:00,
2013-03-09 19:37:00,31.7,26.5,30.45,NNW,345,0.0,2.0,81,0.00,,,0.00,Weather View 32 v70,2013-03-10 00:37:00,
2013-03-09 19:42:00,31.7,26.8,30.45,NNW,345,0.0,2.0,82,0.00,,,0.00,Weather View 32 v70,2013-03-10 00:42:00,
2013-03-09 19:47:00,31.7,27.1,30.45,West,280,1.0,2.0,83,0.00,,,0.00,Weather View 32 v70,2013-03-10 00:47:00,
2013-03-09 19:52:00,31.3,26.7,30.46,West,276,0.0,2.0,83,0.00,,,0.00,Weather View 32 v70,2013-03-10 00:52:00,
2013-03-09 19:57:00,31.3,26.7,30.45,West,281,0.0,2.0,83,0.00,,,0.00,Weather View 32 v70,2013-03-10 00:57:00,
2013-03-09 20:02:00,31.3,27.0,30.45,WNW,282,1.0,2.0,84,0.00,,,0.00,Weather View 32 v70,2013-03-10 01:02:00,
2013-03-09 20:07:00,31.0,27.0,30.45,WNW,297,0.0,2.0,85,0.00,,,0.00,Weather View 32 v70,2013-03-10 01:07:00,
2013-03-09 20:12:00,31.0,27.0,30.46,West,266,1.0,2.0,85,0.00,,,0.00,Weather View 32 v70,2013-03-10 01:12:00,
2013-03-09 20:17:00,30.2,26.2,30.45,WNW,282,0.0,1.0,85,0.00,,,0.00,Weather View 32 v70,2013-03-10 01:17:00,
2013-03-09 20:22:00,30.1,26.4,30.45,WNW,302,0.0,1.0,86,0.00,,,0.00,Weather View 32 v70,2013-03-10 01:22:00,
2013-03-09 20:27:00,30.2,26.8,30.45,West,278,0.0,1.0,87,0.00,,,0.00,Weather View 32 v70,2013-03-10 01:27:00,
2013-03-09 20:32:00,30.4,27.0,30.46,NW,317,1.0,1.0,87,0.00,,,0.00,Weather View 32 v70,2013-03-10 01:32:00,
2013-03-09 20:37:00,29.7,26.3,30.46,West,272,0.0,1.0,87,0.00,,,0.00,Weather View 32 v70,2013-03-10 01:37:00,
2013-03-09 20:42:00,29.7,26.3,30.47,NW,325,0.0,1.0,87,0.00,,,0.00,Weather View 32 v70,2013-03-10 01:42:00,
2013-03-09 20:47:00,29.5,26.1,30.47,North,6,1.0,1.0,87,0.00,,,0.00,Weather View 32 v70,2013-03-10 01:47:00,
2013-03-09 20:52:00,29.3,26.2,30.47,NW,305,0.0,1.0,88,0.00,,,0.00,Weather View 32 v70,2013-03-10 01:52:00,
2013-03-09 20:57:00,29.3,26.2,30.47,WNW,295,1.0,1.0,88,0.00,,,0.00,Weather View 32 v70,2013-03-10 01:57:00,
2013-03-09 21:02:00,29.2,26.1,30.47,SW,224,1.0,2.0,88,0.00,,,0.00,Weather View 32 v70,2013-03-10 02:02:00,
2013-03-09 21:07:00,29.2,26.4,30.47,NW,313,0.0,2.0,89,0.00,,,0.00,Weather View 32 v70,2013-03-10 02:07:00,
2013-03-09 21:12:00,28.8,26.0,30.47,WSW,247,1.0,2.0,89,0.00,,,0.00,Weather View 32 v70,2013-03-10 02:12:00,
2013-03-09 21:17:00,29.3,26.7,30.48,West,272,1.0,2.0,90,0.00,,,0.00,Weather View 32 v70,2013-03-10 02:17:00,
2013-03-09 21:22:00,28.8,26.2,30.48,WNW,296,1.0,2.0,90,0.00,,,0.00,Weather View 32 v70,2013-03-10 02:22:00,
2013-03-09 21:27:00,28.1,25.3,30.49,WNW,284,0.0,2.0,89,0.00,,,0.00,Weather View 32 v70,2013-03-10 02:27:00,
2013-03-09 21:32:00,27.5,24.7,30.50,WNW,291,2.0,2.0,89,0.00,,,0.00,Weather View 32 v70,2013-03-10 02:32:00,
2013-03-09 21:37:00,27.7,25.2,30.50,NW,316,1.0,2.0,90,0.00,,,0.00,Weather View 32 v70,2013-03-10 02:37:00,
2013-03-09 21:42:00,27.7,25.2,30.50,West,280,0.0,2.0,90,0.00,,,0.00,Weather View 32 v70,2013-03-10 02:42:00,
2013-03-09 21:47:00,27.4,26.2,30.50,WNW,299,0.0,2.0,95,0.00,,,0.00,Weather View 32 v70,2013-03-10 02:47:00,
2013-03-09 21:52:00,27.7,25.2,30.50,SW,233,0.0,2.0,90,0.00,,,0.00,Weather View 32 v70,2013-03-10 02:52:00,
2013-03-09 21:57:00,27.4,26.2,30.50,WSW,252,0.0,2.0,95,0.00,,,0.00,Weather View 32 v70,2013-03-10 02:57:00,
2013-03-09 22:02:00,27.0,25.8,30.50,WNW,282,0.0,2.0,95,0.00,,,0.00,Weather View 32 v70,2013-03-10 03:02:00,
2013-03-09 22:07:00,27.0,25.8,30.50,NNE,17,0.0,2.0,95,0.00,,,0.00,Weather View 32 v70,2013-03-10 03:07:00,
2013-03-09 22:12:00,26.8,25.6,30.50,NW,320,0.0,2.0,95,0.00,,,0.00,Weather View 32 v70,2013-03-10 03:12:00,
2013-03-09 22:17:00,26.8,25.8,30.50,SW,219,0.0,2.0,96,0.00,,,0.00,Weather View 32 v70,2013-03-10 03:17:00,
2013-03-09 22:23:00,26.6,25.6,30.50,West,275,0.0,2.0,96,0.00,,,0.00,Weather View 32 v70,2013-03-10 03:23:00,
2013-03-09 22:27:00,26.6,25.6,30.50,North,5,1.0,2.0,96,0.00,,,0.00,Weather View 32 v70,2013-03-10 03:27:00,
2013-03-09 22:33:00,26.6,25.6,30.49,NW,307,0.0,2.0,96,0.00,,,0.00,Weather View 32 v70,2013-03-10 03:33:00,
2013-03-09 22:38:00,26.8,25.8,30.49,West,262,0.0,1.0,96,0.00,,,0.00,Weather View 32 v70,2013-03-10 03:38:00,
2013-03-09 22:43:00,27.2,26.2,30.49,West,259,1.0,1.0,96,0.00,,,0.00,Weather View 32 v70,2013-03-10 03:43:00,
2013-03-09 22:48:00,26.8,26.1,30.49,North,11,0.0,2.0,97,0.00,,,0.00,Weather View 32 v70,2013-03-10 03:48:00,
2013-03-09 22:53:00,26.6,25.9,30.49,North,354,0.0,2.0,97,0.00,,,0.00,Weather View 32 v70,2013-03-10 03:53:00,
2013-03-09 22:58:00,26.3,25.3,30.50,West,267,1.0,2.0,96,0.00,,,0.00,Weather View 32 v70,2013-03-10 03:58:00,
2013-03-09 23:03:00,26.1,25.4,30.50,WSW,249,1.0,2.0,97,0.00,,,0.00,Weather View 32 v70,2013-03-10 04:03:00,
2013-03-09 23:08:00,26.3,25.6,30.50,WNW,302,0.0,2.0,97,0.00,,,0.00,Weather View 32 v70,2013-03-10 04:08:00,
2013-03-09 23:13:00,26.3,25.6,30.50,WNW,302,0.0,2.0,97,0.00,,,0.00,Weather View 32 v70,2013-03-10 04:13:00,
2013-03-09 23:18:00,25.7,25.0,30.50,WNW,299,0.0,2.0,97,0.00,,,0.00,Weather View 32 v70,2013-03-10 04:18:00,
2013-03-09 23:23:00,25.9,25.2,30.50,NW,316,1.0,2.0,97,0.00,,,0.00,Weather View 32 v70,2013-03-10 04:23:00,
2013-03-09 23:28:00,25.7,25.0,30.52,West,271,0.0,2.0,97,0.00,,,0.00,Weather View 32 v70,2013-03-10 04:28:00,
2013-03-09 23:33:00,25.9,25.2,30.51,NW,323,2.0,2.0,97,0.00,,,0.00,Weather View 32 v70,2013-03-10 04:33:00,
2013-03-09 23:38:00,26.1,25.4,30.50,WSW,256,0.0,2.0,97,0.00,,,0.00,Weather View 32 v70,2013-03-10 04:38:00,
2013-03-09 23:43:00,26.1,25.4,30.50,WSW,239,1.0,2.0,97,0.00,,,0.00,Weather View 32 v70,2013-03-10 04:43:00,
2013-03-09 23:48:00,25.9,25.2,30.50,WNW,282,0.0,2.0,97,0.00,,,0.00,Weather View 32 v70,2013-03-10 04:48:00,
2013-03-09 23:53:00,25.9,25.2,30.50,West,275,0.0,2.0,97,0.00,,,0.00,Weather View 32 v70,2013-03-10 04:53:00,
2013-03-09 23:58:00,25.2,24.5,30.51,NW,311,1.0,2.0,97,0.00,,,0.00,Weather View 32 v70,2013-03-10 04:58:00,